星链-31951 (STARLINK-31951 )

导读

STARLINK-31951是美国太空探索技术公司SpaceX星链卫星互联网项目的组成卫星,于2024年5月28日发射入轨。它隶属于星链低轨星座组网卫星,旨在为全球提供高速低延迟互联网接入服务,进一步扩充星链星座的在轨卫星规模,提升全球覆盖密度与服务稳定性,助力星链在民用及商用领域持续拓展服务能力。

基本信息
目录编号:
59890
目录名称:
STARLINK-31951
国际标识:
2024-100F
轨道中心:
EARTH
卫星名称:
星链-31951
卫星全名:
星链-31951 (STARLINK-31951 )
卫星状态:
在轨 (已飞行837 天)
发射日期:
2024-05-28 UTC
国别 :
美国 (US)
星等 :
--
该卫星已列入 空间交会检测服务 Space Conjunction Data Service (SCDS) ,当前飞行风险评估等级: 无高风险
轨道信息
数据来源 国际轨道数据 AOE轨道数据
星历时间 2026-09-11T10:08:00+0800
1天前
查看轨道信息
2026-09-07T00:00:00+0800
5天前
查看轨道信息
半长轴 6861.192km 6861.202km
偏心率 0.0001411 0.000001
轨道倾角 43.002° 43.000°
近地点辐角 267.688° 185.708°
升交点赤经 158.155° 183.132°
平近点角 92.381° 306.796°
近地点 482.086km 483.058km
远地点 484.024km 483.072km
周期 94.267分钟 94.267分钟
每日圈数 15.275782 15.275747
详细信息
固有亮度:
5
最大亮度:
1.5
卫星平台:
Starlink v2.0 mini
覆盖范围:
全球
运营商:
太空探索技术公司
运营商所在国:
美国
制造商(研发单位):
太空探索技术公司
制造商所在国:
美国
使用方式:
暂无
卫星简介
星链(Starlink)计划是由太空探索技术公司(SpaceX)提出的一个巨型低轨卫星互联网星座项目,计划在2019年至2024年间在太空搭建由约1.2万颗卫星组成的“星链”网络,其中1584颗将部署在地球上空550千米处的近地轨道,并从2020年开始工作。该卫星仍在工作。
2D轨道图
3D轨道图
轨道高度分析图
轨道倾角分析图
轨道综合分析图
查看轨道综合分析图
与全量物体交会距离演化趋势
与全量物体交会风险概率演化趋势